Regional Weather Roundup
Issued by NWS

Home | Current Version | Previous Version | Text Only | Print | Product List | Glossary On
Versions: 1 2 3 4 5 6 7 8 9 10 11 12 13 14 15 16 17 18 19 20 21 22 23 24 25 26 27 28 29 30 31 32 33 34 35 36 37 38 39 40 41 42 43 44 45 46 47 48 49 50
000
ASUS43 KDMX 281807
RWRIA

WEATHER ROUNDUP FOR IOWA
NATIONAL WEATHER SERVICE DES MOINES IA
1200 PM CST FRI NOV 28 2014

NOTE: "FAIR" INDICATES FEW OR NO CLOUDS BELOW 12,000 FEET WITH NO
SIGNIFICANT WEATHER AND/OR OBSTRUCTIONS TO VISIBILITY.

* - THESE STATIONS ARE NOT NWS STATIONS...THUS NOT UNDER NWS
QUALITY CONTROL.  THEY ALSO DO NOT REPORT WEATHER SUCH
AS PRECIPITATION OR FOG.

IAZ001>003-012>014-020>022-031>034-043>046-281900-
   NORTHWEST IOWA

CITY           SKY/WX    TMP DP  RH WIND       PRES   REMARKS
CARROLL *      SUNNY     36  28  75 S10       29.79F WCI  28
CHEROKEE *     MOSUNNY   33  28  80 SE6       29.78F WCI  27
DENISON *      SUNNY     39  30  70 S13       29.76F WCI  32
LE MARS *      SUNNY     34  27  75 SE7       29.78F WCI  28
ORANGE CITY *  MOSUNNY   34  27  75 SE6       29.76F WCI  29
SHELDON *      SUNNY     30  27  86 SE8       29.77F WCI  23
SIOUX CITY     MOSUNNY   40  27  59 SE7       29.77F
6HR MIN TEMP:  24; 6HR MAX TEMP:  40;

SPENCER        PTSUNNY   27  21  78 SE8       29.81F WCI  19
6HR MIN TEMP:  14; 6HR MAX TEMP:  27;

STORM LAKE *   PTSUNNY   30  25  80 SE8       29.78F WCI  23
$$

IAZ055>058-069>071-079>083-090>094-281900-
   SOUTHWEST IOWA

CITY           SKY/WX    TMP DP  RH WIND       PRES   REMARKS
ATLANTIC *     SUNNY     37  30  75 S9        29.82F WCI  31
AUDUBON *      MOSUNNY   37  27  65 S8        29.80F WCI  31
CLARINDA *     SUNNY     45  30  57 S9        29.85F
COUNCIL BLFS * SUNNY     41  28  60 S13       29.78F
CRESTON *      SUNNY     39  30  70 S9        29.84F WCI  33
HARLAN  *      SUNNY     39  32  75 S8G16     29.83F WCI  34
LAMONI         SUNNY     43  30  60 S10       29.86F
6HR MIN TEMP:  25; 6HR MAX TEMP:  43;

RED OAK *      SUNNY     43  30  61 S10       29.82F
SHENANDOAH *   SUNNY     45  30  57 S9        29.83F
$$

IAZ047>049-059>061-072>074-084-281900-
   CENTRAL IOWA

CITY           SKY/WX    TMP DP  RH WIND       PRES   REMARKS
AMES           SUNNY     28  21  75 SE6       29.86F WCI  22
6HR MIN TEMP:  15; 6HR MAX TEMP:  28;

ANKENY *       SUNNY     34  25  69 S9        29.86F WCI  26
CHARITON *     SUNNY     39  28  65 S9        29.88F WCI  33
DES MOINES     PTSUNNY   37  26  64 S9        29.86F WCI  30
6HR MIN TEMP:  20; 6HR MAX TEMP:  37;

GRINNELL*      MOSUNNY   27  23  86 SE10      29.88F WCI  17
KNOXVILLE *    SUNNY     37  27  65 S15       29.86F WCI  28
MARSHALLTOWN   MOSUNNY   25  21  85 SE10      29.88F WCI  15
6HR MIN TEMP:  15; 6HR MAX TEMP:  25;

PELLA *        MOSUNNY   38  27  64 S12       29.89F WCI  31
PERRY *          N/A     34  28  80 SE10      29.83F WCI  26
$$

IAZ004>006-015-016-023>025-035-036-281900-
   NORTH CENTRAL IOWA

CITY           SKY/WX    TMP DP  RH WIND       PRES   REMARKS
ALGONA *       SUNNY     25  21  86 S14       29.83F WCI  13
CLARION *      SUNNY     25  23  93 SE12      29.85F WCI  14
ESTHERVILLE    PTSUNNY   21  18  88 SE9       29.82F WCI  11
6HR MIN TEMP:  11; 6HR MAX TEMP:  21;

FORT DODGE *   MOSUNNY   28  21  74 E8        29.84F WCI  20
MASON CITY     CLOUDY    21  17  84 SE12      29.89F WCI   9
6HR MIN TEMP:  13; 6HR MAX TEMP:  21;

FOREST CITY *    N/A     25  21  86 SE9       29.87F WCI  15
IOWA FALLS *     N/A     25  19  80 SE10      29.87F HAZE    WCI  15
$$

IAZ007>011-017>019-026>030-037>042-050>054-066-281900-
   NORTHEAST IOWA

CITY           SKY/WX    TMP DP  RH WIND       PRES   REMARKS
CEDAR RAPIDS   MOSUNNY   27  21  78 SE12      29.93F WCI  17
6HR MIN TEMP:  15; 6HR MAX TEMP:  27;

CHARLES CITY * PTSUNNY   23  18  80 SE13      29.90F WCI  11
CLINTON *      PTSUNNY   28  21  74 S14       30.03F WCI  17
DECORAH *      SUNNY     23  16  74 SE10G16   29.92F WCI  12
DUBUQUE        PTSUNNY   24  19  81 S17       29.96F WCI  11
6HR MIN TEMP:  14; 6HR MAX TEMP:  24;

MONTICELLO *   SUNNY     28  23  80 SE16      29.95F WCI  17
OELWEIN *      SUNNY     25  21  86 S13       29.93F WCI  13
WATERLOO       PTSUNNY   26  21  81 SE9       29.92F WCI  17
6HR MIN TEMP:  16; 6HR MAX TEMP:  26;

$$

IAZ064-065-067-068-078-281900-
   EAST CENTRAL IOWA

CITY           SKY/WX    TMP DP  RH WIND       PRES   REMARKS
IOWA CITY      PTSUNNY   27  22  81 SE12      29.97F WCI  17
6HR MIN TEMP:  14; 6HR MAX TEMP:  27;

MT. PLEASANT * MOSUNNY   32  25  74 SE10      29.96F WCI  24
MUSCATINE *    SUNNY     30  23  74 S9        29.99F WCI  22
QUAD CITIES    PTSUNNY   30  23  75 S7        29.99F WCI  23
6HR MIN TEMP:  17; 6HR MAX TEMP:  30;

$$

IAZ062-063-075>077-085>089-095>099-281900-
   SOUTHEAST IOWA

CITY           SKY/WX    TMP DP  RH WIND       PRES   REMARKS
BURLINGTON     MOSUNNY   34  26  72 S15       29.98F WCI  24
6HR MIN TEMP:  17; 6HR MAX TEMP:  34;

FAIRFIELD *    SUNNY     36  25  64 S14       29.93F WCI  27
FORT MADISON * SUNNY     36  28  75 SE8       29.97F WCI  29
KEOKUK *       SUNNY     41  28  60 S14G21    29.96F
OSKALOOSA *      N/A     34  27  75 S10       29.90F WCI  26
CENTERVILLE *    N/A     41  28  60 S8        29.91F
OTTUMWA        PTSUNNY   34  25  69 S12       29.90F WCI  25
6HR MIN TEMP:  19; 6HR MAX TEMP:  34;

WASHINGTON *   SUNNY     30  28  93 SE12      29.94F WCI  21
$$

ABBREVIATIONS USED IN REMARKS
   TC - TEMPERATURES IN CELSIUS
  WCI - WIND CHILL INDEX
   HX - HEAT INDEX
  VSB - VISIBILITY
$$




USA.gov is the U.S. government's official web portal to all federal, state and local government web resources and services.